Precipitable_Water
0.38 0.32 0.33 0.33 0.35 0.36 0.39 0.50 0.57 0.56 0.60 0.69 0.80 0.80 0.82 0.81 0.86 1.01 1.07 1.26 1.43 1.33 1.25 1.27 1.28 1.28 1.34 1.38 1.44 1.48 1.45 1.35 1.20 1.05 0.89 0.85 0.86 0.90 0.91 0.93 0.97 0.98 1.00 1.14 1.21 1.25 1.34 1.43 1.46 1.43 1.46 1.48 1.51 1.50 1.46 1.43 1.42 1.44 1.43 1.44 1.45 1.56 1.58 1.55 1.54 1.55 1.52 1.42 1.37 1.35 1.28 1.24 1.30 1.34 1.38 1.42 1.48 1.52 1.56 1.61 1.65 1.67 1.71 1.73 1.76 1.75
0.33 0.28 0.29 0.34 0.39 0.41 0.43 0.46 0.50 0.49 0.54 0.57 0.64 0.70 0.78 0.83 0.77 0.98 1.02 1.21 1.37 1.23 1.24 1.34 1.27 1.28 1.34 1.40 1.46 1.50 1.44 1.27 1.18 1.05 0.94 0.86 0.85 0.89 0.90 0.92 0.95 1.00 1.10 1.15 1.17 1.25 1.32 1.37 1.39 1.42 1.42 1.44 1.40 1.42 1.42 1.39 1.38 1.43 1.45 1.43 1.47 1.55 1.55 1.52 1.52 1.53 1.53 1.49 1.39 1.30 1.27 1.29 1.30 1.32 1.33 1.34 1.42 1.49 1.56 1.60 1.63 1.67 1.71 1.74 1.77 1.76
0.21 0.20 0.25 0.33 0.41 0.44 0.46 0.47 0.48 0.48 0.50 0.60 0.64 0.74 0.74 0.80 0.93 1.06 1.10 1.18 1.29 1.25 1.18 1.31 1.22 1.27 1.34 1.40 1.48 1.45 1.40 1.33 1.27 1.11 1.01 0.93 0.85 0.85 0.90 0.93 0.97 1.01 1.03 1.09 1.13 1.20 1.27 1.32 1.35 1.36 1.39 1.40 1.41 1.39 1.38 1.41 1.40 1.42 1.44 1.47 1.51 1.55 1.56 1.52 1.52 1.53 1.50 1.53 1.50 1.41 1.38 1.38 1.36 1.45 1.47 1.48 1.52 1.59 1.58 1.58 1.61 1.65 1.70 1.74 1.77 1.77
0.16 0.18 0.23 0.32 0.39 0.42 0.43 0.46 0.45 0.49 0.56 0.55 0.70 0.67 0.65 0.83 0.79 0.70 1.00 1.11 1.20 1.21 1.18 1.26 1.20 1.27 1.38 1.44 1.44 1.50 1.46 1.37 1.31 1.22 1.15 1.03 0.89 0.84 0.88 0.93 0.96 0.98 1.01 1.03 1.08 1.14 1.22 1.28 1.31 1.32 1.33 1.36 1.38 1.37 1.38 1.40 1.40 1.40 1.42 1.47 1.52 1.56 1.60 1.56 1.54 1.53 1.57 1.58 1.57 1.54 1.52 1.52 1.47 1.42 1.51 1.53 1.57 1.56 1.56 1.51 1.57 1.64 1.70 1.74 1.74 1.76
0.16 0.17 0.22 0.27 0.32 0.36 0.38 0.42 0.45 0.47 0.47 0.59 0.65 0.69 0.73 0.79 0.84 0.80 0.85 1.03 1.16 1.27 1.34 1.27 1.18 1.18 1.27 1.24 1.33 1.44 1.51 1.41 1.31 1.23 1.17 1.11 0.99 0.91 0.92 0.95 0.98 0.99 1.02 1.02 1.07 1.13 1.19 1.22 1.25 1.26 1.29 1.34 1.33 1.33 1.34 1.38 1.40 1.39 1.40 1.46 1.51 1.56 1.60 1.59 1.57 1.56 1.59 1.60 1.59 1.60 1.62 1.65 1.56 1.54 1.49 1.45 1.43 1.48 1.50 1.49 1.49 1.54 1.65 1.71 1.72 1.73
0.18 0.20 0.23 0.24 0.27 0.32 0.36 0.37 0.44 0.46 0.42 0.53 0.71 0.75 0.77 0.84 0.84 0.88 0.95 0.92 0.89 0.97 1.23 1.18 0.90 0.93 1.15 1.23 1.27 1.35 1.36 1.32 1.33 1.19 1.11 1.09 1.04 0.97 0.92 0.89 0.95 1.02 1.07 1.05 1.06 1.10 1.17 1.21 1.24 1.27 1.28 1.27 1.29 1.30 1.36 1.41 1.42 1.43 1.44 1.46 1.49 1.57 1.60 1.61 1.60 1.61 1.60 1.56 1.57 1.53 1.48 1.45 1.44 1.35 1.34 1.29 1.29 1.35 1.38 1.40 1.51 1.55 1.59 1.63 1.68 1.70
0.25 0.26 0.25 0.25 0.26 0.29 0.33 0.35 0.42 0.48 0.43 0.48 0.60 0.84 0.89 0.89 0.89 0.87 0.85 0.85 0.72 0.73 1.05 1.25 0.86 0.81 1.13 1.14 1.24 1.30 1.29 1.28 1.31 1.21 1.14 1.13 1.07 0.98 0.94 0.93 0.91 0.95 1.03 1.09 1.11 1.12 1.15 1.22 1.23 1.23 1.23 1.24 1.23 1.29 1.39 1.42 1.43 1.44 1.44 1.46 1.48 1.52 1.58 1.63 1.63 1.64 1.63 1.58 1.58 1.54 1.48 1.48 1.46 1.37 1.38 1.45 1.47 1.44 1.47 1.51 1.48 1.49 1.55 1.58 1.59 1.62
0.24 0.24 0.24 0.24 0.26 0.28 0.30 0.32 0.37 0.51 0.49 0.47 0.77 0.84 0.92 0.87 0.82 0.85 0.86 0.83 0.82 1.04 1.14 1.20 1.10 0.89 0.88 1.07 1.27 1.30 1.24 1.25 1.24 1.19 1.15 1.14 1.11 1.01 0.97 0.95 0.93 0.94 0.99 1.04 1.08 1.10 1.12 1.18 1.21 1.19 1.22 1.23 1.22 1.29 1.36 1.39 1.43 1.41 1.41 1.44 1.45 1.50 1.57 1.61 1.63 1.63 1.64 1.58 1.57 1.54 1.50 1.50 1.48 1.45 1.41 1.44 1.46 1.51 1.52 1.48 1.48 1.49 1.51 1.57 1.60 1.58
0.28 0.25 0.24 0.23 0.25 0.26 0.27 0.32 0.36 0.50 0.50 0.60 0.84 0.89 0.86 0.88 0.87 0.88 0.88 0.85 0.90 0.88 0.81 1.00 1.14 0.90 0.88 1.05 1.28 1.31 1.15 1.17 1.19 1.17 1.15 1.13 1.12 1.05 1.01 0.99 0.96 0.97 0.97 1.02 1.06 1.08 1.11 1.13 1.19 1.24 1.24 1.25 1.27 1.29 1.30 1.35 1.40 1.43 1.44 1.47 1.47 1.46 1.54 1.60 1.62 1.61 1.64 1.64 1.58 1.54 1.54 1.50 1.54 1.53 1.48 1.49 1.52 1.49 1.52 1.45 1.49 1.49 1.52 1.57 1.61 1.66
0.30 0.28 0.25 0.24 0.23 0.24 0.28 0.32 0.42 0.52 0.54 0.84 0.96 0.94 0.95 0.95 0.92 0.93 0.90 0.90 0.90 0.82 0.74 0.90 1.05 0.82 0.83 1.04 1.11 1.23 1.16 1.09 1.16 1.19 1.17 1.14 1.11 1.08 1.04 1.02 1.00 1.01 1.01 1.02 1.06 1.09 1.12 1.15 1.17 1.24 1.29 1.28 1.27 1.30 1.33 1.35 1.41 1.43 1.45 1.46 1.45 1.40 1.49 1.57 1.60 1.61 1.61 1.64 1.62 1.55 1.54 1.51 1.52 1.55 1.54 1.52 1.49 1.48 1.50 1.45 1.44 1.47 1.50 1.56 1.58 1.64
0.32 0.34 0.34 0.28 0.26 0.28 0.30 0.35 0.49 0.61 0.72 0.98 0.89 0.80 0.84 0.87 0.86 0.92 0.92 0.89 0.80 0.66 0.76 0.93 1.06 0.96 0.74 0.93 1.02 1.02 1.04 1.14 1.20 1.22 1.20 1.16 1.14 1.12 1.11 1.05 1.03 1.00 1.03 1.04 1.06 1.10 1.13 1.18 1.19 1.23 1.24 1.28 1.30 1.32 1.33 1.34 1.37 1.41 1.41 1.43 1.42 1.40 1.42 1.54 1.57 1.58 1.57 1.60 1.61 1.58 1.56 1.53 1.50 1.53 1.52 1.49 1.49 1.50 1.51 1.47 1.45 1.43 1.46 1.57 1.60 1.62
0.32 0.32 0.28 0.29 0.29 0.37 0.48 0.58 0.76 0.78 0.91 0.86 0.76 0.69 0.69 0.70 0.80 0.75 0.75 0.83 0.62 0.56 0.77 0.91 1.02 0.99 0.70 0.82 1.02 1.22 1.29 1.25 1.23 1.17 1.15 1.08 1.07 1.09 1.11 1.11 1.07 1.05 1.06 1.10 1.10 1.10 1.15 1.18 1.21 1.23 1.20 1.27 1.31 1.32 1.32 1.34 1.37 1.39 1.41 1.41 1.40 1.41 1.38 1.49 1.54 1.56 1.57 1.56 1.57 1.59 1.58 1.54 1.55 1.54 1.50 1.49 1.48 1.49 1.50 1.54 1.51 1.51 1.51 1.55 1.64 1.64
0.27 0.27 0.30 0.28 0.37 0.38 0.55 0.60 0.80 0.87 0.83 0.76 0.72 0.63 0.46 0.50 0.53 0.46 0.59 0.51 0.54 0.57 0.77 0.92 0.94 0.84 0.80 0.93 1.06 1.13 1.20 1.26 1.27 1.26 1.19 1.12 1.08 1.11 1.12 1.14 1.12 1.09 1.10 1.11 1.12 1.12 1.14 1.15 1.16 1.17 1.18 1.23 1.29 1.30 1.32 1.33 1.37 1.40 1.42 1.41 1.37 1.38 1.42 1.45 1.52 1.54 1.56 1.53 1.53 1.56 1.56 1.56 1.58 1.58 1.55 1.54 1.53 1.56 1.54 1.59 1.57 1.55 1.50 1.54 1.55 1.57
0.28 0.28 0.28 0.33 0.45 0.53 0.52 0.49 0.64 0.64 0.69 0.63 0.55 0.51 0.43 0.39 0.39 0.37 0.47 0.57 0.61 0.73 0.90 0.87 1.01 0.79 0.95 0.99 1.10 1.13 1.21 1.27 1.29 1.30 1.30 1.23 1.17 1.15 1.15 1.17 1.18 1.13 1.11 1.14 1.15 1.14 1.15 1.16 1.17 1.17 1.18 1.19 1.24 1.31 1.34 1.37 1.37 1.39 1.41 1.42 1.37 1.37 1.45 1.49 1.51 1.53 1.54 1.51 1.52 1.58 1.59 1.60 1.61 1.59 1.60 1.58 1.56 1.58 1.61 1.63 1.61 1.59 1.57 1.55 1.55 1.57
0.23 0.20 0.27 0.31 0.38 0.59 0.57 0.51 0.53 0.47 0.58 0.58 0.64 0.54 0.47 0.44 0.39 0.34 0.43 0.41 0.49 0.58 0.77 0.99 0.83 0.78 0.76 0.88 1.15 1.17 1.24 1.30 1.33 1.36 1.37 1.33 1.27 1.25 1.24 1.21 1.21 1.16 1.13 1.15 1.16 1.15 1.16 1.19 1.20 1.18 1.19 1.20 1.22 1.28 1.34 1.37 1.39 1.39 1.39 1.42 1.40 1.38 1.43 1.47 1.50 1.52 1.51 1.52 1.54 1.58 1.64 1.64 1.64 1.64 1.65 1.63 1.65 1.63 1.60 1.63 1.62 1.60 1.63 1.62 1.63 1.62
0.27 0.26 0.34 0.36 0.39 0.51 0.66 0.69 0.68 0.60 0.61 0.70 0.72 0.66 0.50 0.44 0.54 0.40 0.51 0.53 0.57 0.60 0.64 0.76 0.74 0.89 0.85 1.15 1.26 1.32 1.30 1.31 1.35 1.33 1.37 1.34 1.32 1.31 1.27 1.22 1.17 1.16 1.14 1.14 1.17 1.17 1.19 1.23 1.24 1.23 1.23 1.21 1.22 1.26 1.31 1.35 1.39 1.38 1.38 1.41 1.43 1.41 1.41 1.43 1.47 1.52 1.53 1.53 1.57 1.58 1.59 1.64 1.67 1.66 1.68 1.67 1.70 1.70 1.65 1.60 1.60 1.60 1.62 1.63 1.65 1.68
0.28 0.26 0.34 0.37 0.40 0.39 0.52 0.69 0.70 0.68 0.42 0.61 0.65 0.51 0.53 0.66 0.56 0.54 0.60 0.69 0.68 0.62 0.56 0.80 0.78 0.88 1.09 1.11 1.21 1.27 1.24 1.25 1.32 1.34 1.35 1.34 1.34 1.33 1.28 1.25 1.21 1.19 1.16 1.15 1.16 1.17 1.19 1.25 1.26 1.27 1.27 1.26 1.24 1.26 1.29 1.34 1.40 1.38 1.40 1.41 1.43 1.46 1.47 1.43 1.42 1.49 1.55 1.56 1.55 1.56 1.59 1.63 1.66 1.65 1.63 1.65 1.68 1.70 1.68 1.62 1.62 1.65 1.67 1.67 1.65 1.65
0.27 0.29 0.35 0.34 0.34 0.40 0.45 0.64 0.70 0.69 0.66 0.64 0.50 0.56 0.67 0.74 0.69 0.53 0.45 0.56 0.54 0.47 0.58 0.73 0.68 0.75 0.79 0.71 1.14 1.17 1.15 1.19 1.24 1.26 1.29 1.33 1.37 1.33 1.33 1.31 1.27 1.24 1.22 1.19 1.18 1.19 1.22 1.25 1.27 1.29 1.32 1.32 1.29 1.28 1.31 1.36 1.43 1.45 1.44 1.46 1.46 1.48 1.46 1.45 1.42 1.43 1.50 1.51 1.52 1.54 1.57 1.61 1.65 1.66 1.66 1.69 1.70 1.74 1.71 1.67 1.66 1.70 1.67 1.66 1.71 1.71
0.35 0.28 0.33 0.36 0.38 0.41 0.46 0.60 0.68 0.75 0.71 0.62 0.55 0.72 0.49 0.46 0.41 0.56 0.52 0.43 0.44 0.44 0.49 0.62 0.72 0.73 0.77 0.77 1.01 1.05 1.08 1.13 1.22 1.28 1.28 1.26 1.29 1.33 1.36 1.36 1.36 1.34 1.31 1.25 1.20 1.19 1.21 1.25 1.28 1.29 1.31 1.35 1.36 1.35 1.35 1.39 1.45 1.48 1.48 1.52 1.52 1.49 1.49 1.48 1.45 1.43 1.47 1.50 1.50 1.53 1.56 1.58 1.63 1.66 1.69 1.73 1.74 1.74 1.73 1.69 1.68 1.69 1.71 1.73 1.73 1.74
0.38 0.30 0.30 0.38 0.39 0.42 0.42 0.45 0.46 0.51 0.58 0.53 0.61 0.59 0.63 0.50 0.50 0.48 0.50 0.55 0.50 0.44 0.46 0.51 0.65 0.60 0.79 0.84 0.95 1.01 1.11 1.13 1.20 1.27 1.29 1.32 1.32 1.30 1.34 1.38 1.39 1.38 1.35 1.33 1.28 1.24 1.23 1.24 1.28 1.29 1.30 1.33 1.35 1.35 1.38 1.42 1.48 1.48 1.50 1.53 1.54 1.57 1.56 1.55 1.49 1.44 1.42 1.46 1.47 1.50 1.56 1.60 1.64 1.66 1.66 1.70 1.69 1.67 1.69 1.70 1.69 1.69 1.71 1.72 1.76 1.75
0.35 0.39 0.28 0.36 0.43 0.42 0.35 0.40 0.37 0.41 0.39 0.37 0.40 0.42 0.48 0.48 0.61 0.60 0.62 0.53 0.48 0.46 0.47 0.49 0.50 0.62 0.78 0.95 0.97 1.03 1.13 1.15 1.20 1.26 1.31 1.34 1.34 1.31 1.33 1.38 1.43 1.43 1.41 1.41 1.39 1.34 1.31 1.29 1.31 1.34 1.34 1.35 1.38 1.39 1.40 1.44 1.46 1.51 1.54 1.54 1.57 1.56 1.58 1.58 1.55 1.48 1.43 1.46 1.45 1.45 1.47 1.53 1.59 1.62 1.66 1.66 1.67 1.66 1.68 1.70 1.70 1.71 1.73 1.77 1.74 1.76
0.34 0.35 0.31 0.36 0.36 0.36 0.38 0.45 0.47 0.45 0.44 0.40 0.38 0.42 0.44 0.40 0.39 0.38 0.41 0.57 0.56 0.50 0.47 0.47 0.49 0.65 0.83 1.03 1.02 1.07 1.17 1.20 1.26 1.31 1.34 1.36 1.34 1.30 1.29 1.31 1.36 1.40 1.46 1.47 1.47 1.46 1.43 1.40 1.39 1.41 1.41 1.40 1.38 1.37 1.38 1.43 1.48 1.51 1.53 1.56 1.60 1.64 1.63 1.61 1.60 1.54 1.48 1.48 1.47 1.40 1.43 1.49 1.57 1.62 1.65 1.63 1.63 1.61 1.65 1.68 1.70 1.73 1.73 1.70 1.73 1.74
0.41 0.40 0.37 0.34 0.36 0.38 0.43 0.52 0.55 0.54 0.55 0.52 0.48 0.42 0.48 0.46 0.45 0.40 0.34 0.43 0.55 0.57 0.62 0.58 0.52 0.60 0.97 1.08 1.07 1.11 1.18 1.25 1.33 1.36 1.36 1.38 1.38 1.37 1.36 1.36 1.37 1.38 1.43 1.51 1.56 1.57 1.56 1.56 1.56 1.50 1.46 1.42 1.39 1.39 1.41 1.45 1.48 1.51 1.55 1.57 1.60 1.62 1.64 1.65 1.62 1.59 1.54 1.51 1.49 1.43 1.43 1.49 1.53 1.59 1.62 1.61 1.60 1.59 1.62 1.66 1.70 1.75 1.73 1.72 1.71 1.74
0.51 0.39 0.34 0.36 0.40 0.45 0.49 0.55 0.55 0.54 0.53 0.46 0.47 0.51 0.48 0.44 0.46 0.42 0.41 0.49 0.47 0.56 0.51 0.54 0.48 0.60 0.96 1.17 1.14 1.14 1.21 1.29 1.36 1.39 1.37 1.40 1.45 1.43 1.42 1.47 1.52 1.54 1.52 1.56 1.61 1.63 1.62 1.61 1.63 1.58 1.53 1.54 1.51 1.48 1.46 1.50 1.53 1.55 1.58 1.58 1.59 1.59 1.64 1.67 1.66 1.61 1.55 1.53 1.51 1.51 1.47 1.45 1.51 1.55 1.57 1.56 1.57 1.57 1.61 1.65 1.67 1.72 1.72 1.72 1.72 1.69
0.32 0.40 0.38 0.34 0.33 0.37 0.41 0.47 0.45 0.50 0.53 0.49 0.48 0.54 0.57 0.57 0.53 0.46 0.44 0.50 0.43 0.50 0.50 0.48 0.42 0.53 0.88 1.17 1.21 1.19 1.22 1.25 1.30 1.39 1.43 1.39 1.47 1.50 1.47 1.48 1.53 1.58 1.60 1.58 1.57 1.61 1.65 1.63 1.61 1.64 1.64 1.59 1.56 1.60 1.67 1.65 1.58 1.59 1.61 1.63 1.60 1.61 1.67 1.70 1.72 1.65 1.56 1.51 1.49 1.51 1.50 1.46 1.48 1.48 1.50 1.52 1.55 1.55 1.57 1.59 1.62 1.63 1.62 1.66 1.67 1.68
0.35 0.37 0.39 0.33 0.31 0.29 0.30 0.32 0.37 0.39 0.45 0.51 0.55 0.56 0.55 0.54 0.48 0.38 0.30 0.38 0.35 0.48 0.52 0.47 0.46 0.70 0.94 1.08 1.14 1.18 1.20 1.22 1.31 1.36 1.42 1.46 1.45 1.49 1.54 1.54 1.51 1.53 1.55 1.58 1.59 1.60 1.59 1.63 1.66 1.67 1.68 1.68 1.66 1.65 1.64 1.73 1.82 1.75 1.69 1.70 1.72 1.71 1.73 1.74 1.73 1.69 1.58 1.50 1.47 1.47 1.46 1.45 1.45 1.43 1.44 1.49 1.52 1.52 1.53 1.55 1.56 1.56 1.58 1.61 1.62 1.65
0.38 0.43 0.44 0.42 0.39 0.37 0.41 0.48 0.59 0.64 0.56 0.51 0.55 0.57 0.55 0.59 0.59 0.42 0.38 0.34 0.32 0.42 0.45 0.51 0.55 0.66 0.77 0.89 0.98 1.07 1.13 1.09 1.18 1.28 1.31 1.37 1.45 1.54 1.58 1.60 1.57 1.53 1.52 1.54 1.55 1.56 1.59 1.59 1.59 1.65 1.70 1.71 1.73 1.72 1.74 1.79 1.83 1.91 1.92 1.86 1.77 1.74 1.75 1.79 1.79 1.73 1.62 1.53 1.46 1.44 1.43 1.43 1.44 1.47 1.48 1.50 1.53 1.56 1.57 1.57 1.58 1.58 1.56 1.58 1.57 1.58
0.38 0.39 0.44 0.46 0.47 0.47 0.51 0.51 0.62 0.67 0.59 0.62 0.58 0.57 0.64 0.60 0.58 0.48 0.35 0.32 0.46 0.37 0.35 0.49 0.63 0.60 0.72 0.86 0.94 1.02 1.10 1.14 1.17 1.23 1.30 1.36 1.42 1.47 1.53 1.60 1.60 1.56 1.55 1.56 1.56 1.56 1.55 1.57 1.58 1.60 1.67 1.73 1.76 1.79 1.81 1.83 1.89 1.92 1.94 1.95 1.95 1.91 1.86 1.86 1.89 1.82 1.73 1.63 1.54 1.48 1.47 1.48 1.52 1.58 1.63 1.65 1.64 1.61 1.61 1.62 1.62 1.62 1.60 1.58 1.52 1.50
0.34 0.35 0.44 0.46 0.47 0.51 0.52 0.52 0.61 0.66 0.65 0.65 0.62 0.60 0.59 0.66 0.62 0.50 0.50 0.52 0.48 0.32 0.32 0.47 0.60 0.59 0.76 0.87 0.98 1.05 1.08 1.11 1.17 1.23 1.31 1.38 1.44 1.49 1.53 1.54 1.54 1.52 1.53 1.54 1.55 1.57 1.58 1.61 1.64 1.65 1.71 1.77 1.81 1.83 1.85 1.91 1.95 1.93 1.93 1.90 1.91 1.97 1.97 1.95 1.89 1.81 1.74 1.72 1.63 1.57 1.57 1.57 1.59 1.63 1.68 1.70 1.68 1.65 1.64 1.64 1.64 1.64 1.62 1.60 1.57 1.56
0.35 0.38 0.43 0.45 0.44 0.47 0.50 0.53 0.57 0.57 0.61 0.58 0.58 0.61 0.64 0.66 0.66 0.63 0.59 0.62 0.52 0.45 0.52 0.55 0.60 0.65 0.82 0.92 1.02 1.10 1.18 1.19 1.23 1.32 1.36 1.34 1.35 1.40 1.43 1.46 1.47 1.48 1.49 1.53 1.58 1.62 1.64 1.67 1.72 1.75 1.79 1.81 1.83 1.86 1.89 1.94 1.97 1.97 1.94 1.92 1.92 1.95 2.02 2.01 1.95 1.87 1.79 1.73 1.70 1.67 1.64 1.61 1.62 1.65 1.67 1.67 1.67 1.68 1.69 1.68 1.66 1.65 1.63 1.61 1.62 1.62
0.35 0.35 0.44 0.43 0.41 0.43 0.50 0.54 0.57 0.56 0.54 0.52 0.57 0.58 0.61 0.65 0.70 0.67 0.66 0.66 0.65 0.57 0.61 0.61 0.59 0.64 0.91 1.05 1.09 1.20 1.24 1.26 1.24 1.22 1.25 1.31 1.35 1.36 1.39 1.42 1.44 1.46 1.50 1.55 1.62 1.68 1.71 1.73 1.74 1.78 1.82 1.87 1.89 1.89 1.91 1.95 1.97 2.01 2.03 2.05 2.01 1.98 2.01 2.00 1.91 1.92 1.87 1.78 1.75 1.74 1.75 1.72 1.70 1.70 1.66 1.66 1.69 1.71 1.71 1.70 1.69 1.68 1.66 1.65 1.64 1.61
0.37 0.36 0.41 0.39 0.33 0.37 0.46 0.51 0.52 0.56 0.53 0.50 0.51 0.55 0.57 0.58 0.58 0.64 0.59 0.75 0.63 0.56 0.62 0.62 0.59 0.65 0.91 1.07 1.13 1.19 1.19 1.15 1.11 1.15 1.19 1.24 1.30 1.32 1.34 1.40 1.43 1.48 1.52 1.58 1.65 1.70 1.74 1.74 1.76 1.78 1.82 1.88 1.94 1.97 1.99 1.99 2.02 2.04 2.04 2.09 2.08 2.07 2.06 2.02 1.99 1.97 1.91 1.88 1.87 1.86 1.85 1.86 1.84 1.80 1.77 1.75 1.73 1.73 1.74 1.75 1.73 1.71 1.70 1.69 1.65 1.63
0.34 0.33 0.33 0.35 0.30 0.32 0.45 0.50 0.52 0.52 0.49 0.41 0.46 0.55 0.63 0.65 0.69 0.75 0.77 0.81 0.77 0.75 0.60 0.55 0.64 0.87 0.99 1.08 1.04 1.08 1.12 1.13 1.13 1.16 1.17 1.23 1.28 1.30 1.33 1.38 1.43 1.49 1.52 1.55 1.57 1.62 1.67 1.72 1.78 1.84 1.91 1.94 1.97 1.99 2.04 2.07 2.08 2.06 2.11 2.09 2.12 2.14 2.06 2.05 2.06 2.03 1.99 1.97 1.94 1.95 1.96 1.93 1.89 1.87 1.89 1.91 1.89 1.87 1.83 1.80 1.77 1.74 1.73 1.72 1.75 1.72
0.35 0.32 0.32 0.38 0.29 0.32 0.38 0.44 0.51 0.47 0.36 0.37 0.64 0.75 0.74 0.65 0.67 0.61 0.66 0.76 0.84 0.86 0.77 0.86 0.89 0.98 1.03 1.04 1.01 1.03 1.08 1.12 1.18 1.26 1.33 1.29 1.27 1.31 1.36 1.41 1.44 1.47 1.50 1.54 1.57 1.63 1.71 1.73 1.76 1.85 1.88 1.95 2.01 2.08 2.11 2.12 2.10 2.14 2.17 2.17 2.19 2.18 2.14 2.10 2.09 2.04 1.98 1.96 1.94 1.97 2.01 1.98 1.95 1.93 1.95 1.96 1.96 1.94 1.91 1.88 1.85 1.87 1.90 1.91 1.89 1.81
0.33 0.33 0.32 0.37 0.30 0.30 0.36 0.38 0.36 0.31 0.36 0.62 0.73 0.81 0.84 0.81 0.79 0.73 0.76 0.79 0.85 0.90 0.89 0.89 0.95 0.95 1.00 1.04 1.05 1.14 1.20 1.26 1.31 1.32 1.35 1.40 1.41 1.37 1.36 1.40 1.45 1.47 1.51 1.55 1.58 1.66 1.70 1.69 1.73 1.77 1.86 1.92 2.00 2.06 2.10 2.11 2.13 2.15 2.16 2.15 2.09 2.11 2.10 2.11 2.01 1.97 1.95 1.96 1.99 2.01 2.01 2.00 1.97 1.96 1.98 1.98 1.97 1.94 1.90 1.89 1.90 1.91 1.93 1.95 1.95 1.93
0.32 0.31 0.34 0.32 0.35 0.36 0.31 0.32 0.24 0.29 0.52 0.64 0.71 0.76 0.84 0.83 0.80 0.75 0.68 0.78 0.82 0.87 0.87 0.80 0.89 1.02 1.06 1.09 1.17 1.22 1.25 1.30 1.32 1.35 1.37 1.42 1.46 1.42 1.41 1.44 1.50 1.54 1.54 1.56 1.59 1.60 1.64 1.67 1.69 1.74 1.83 1.96 1.98 2.01 2.07 2.09 2.15 2.10 2.05 2.07 2.03 2.00 2.01 2.02 1.97 1.94 1.96 1.95 1.97 1.97 1.99 1.99 1.97 1.95 1.96 1.98 2.01 1.99 1.96 1.96 1.98 1.99 2.03 2.01 2.01 2.02
0.35 0.34 0.31 0.27 0.38 0.25 0.31 0.32 0.31 0.47 0.48 0.55 0.58 0.67 0.73 0.66 0.65 0.63 0.53 0.66 0.83 0.89 0.91 0.85 0.93 1.08 1.14 1.06 1.07 1.16 1.25 1.25 1.16 1.18 1.36 1.40 1.43 1.45 1.45 1.47 1.52 1.54 1.57 1.61 1.63 1.60 1.72 1.75 1.74 1.79 1.81 1.82 1.88 1.87 1.93 1.99 2.01 2.01 1.97 1.91 1.96 1.99 1.94 1.92 1.88 1.92 1.97 1.97 1.96 1.96 1.97 1.97 1.95 1.94 1.97 2.01 2.01 1.99 1.99 1.98 2.02 2.05 2.08 2.02 2.02 2.03
0.37 0.30 0.36 0.27 0.33 0.37 0.30 0.28 0.31 0.33 0.28 0.40 0.57 0.75 0.83 0.84 0.80 0.80 0.70 0.63 0.86 0.93 0.96 0.94 0.94 1.03 1.05 1.04 1.04 1.13 1.21 1.07 0.94 1.03 1.25 1.39 1.44 1.48 1.49 1.51 1.57 1.61 1.62 1.63 1.67 1.67 1.69 1.72 1.74 1.78 1.81 1.80 1.85 1.90 1.93 1.93 1.97 1.93 1.93 1.95 1.92 1.91 1.89 1.89 1.87 1.92 1.94 1.96 1.96 1.96 1.96 1.96 1.96 1.94 1.95 1.97 1.96 1.97 1.99 1.97 2.00 2.06 2.11 2.05 2.04 2.08
0.41 0.39 0.39 0.31 0.32 0.33 0.31 0.25 0.26 0.25 0.31 0.52 0.61 0.72 0.81 0.84 0.83 0.82 0.61 0.51 0.80 0.91 0.95 0.94 0.93 1.00 1.03 1.02 1.01 1.05 1.01 0.86 0.88 1.02 1.24 1.31 1.34 1.40 1.41 1.46 1.52 1.56 1.60 1.62 1.64 1.63 1.67 1.71 1.74 1.77 1.78 1.80 1.78 1.84 1.90 1.92 1.90 1.86 1.83 1.85 1.86 1.86 1.84 1.84 1.88 1.91 1.87 1.90 1.90 1.90 1.90 1.91 1.90 1.88 1.87 1.88 1.92 1.94 1.94 1.96 2.00 2.04 2.10 2.09 2.07 2.03
0.38 0.39 0.38 0.32 0.30 0.30 0.28 0.26 0.26 0.34 0.34 0.51 0.64 0.73 0.81 0.86 0.83 0.68 0.42 0.44 0.77 0.93 0.97 0.97 0.92 0.95 1.00 1.04 1.02 0.95 0.91 0.82 0.88 1.04 1.26 1.26 1.32 1.37 1.40 1.42 1.48 1.51 1.54 1.57 1.62 1.64 1.66 1.69 1.69 1.68 1.68 1.68 1.72 1.79 1.81 1.81 1.79 1.76 1.74 1.75 1.76 1.76 1.77 1.79 1.79 1.82 1.83 1.82 1.82 1.82 1.82 1.83 1.82 1.83 1.84 1.85 1.87 1.89 1.89 1.92 1.93 1.95 1.95 1.94 1.97 1.98
0.31 0.35 0.35 0.30 0.31 0.32 0.30 0.29 0.33 0.35 0.47 0.58 0.65 0.74 0.80 0.88 0.74 0.50 0.39 0.57 0.86 0.95 1.00 1.01 1.00 1.00 1.02 0.98 1.00 0.88 0.98 1.04 1.11 1.20 1.27 1.30 1.29 1.29 1.34 1.38 1.41 1.49 1.50 1.55 1.54 1.57 1.56 1.57 1.59 1.59 1.60 1.64 1.68 1.72 1.75 1.76 1.73 1.69 1.70 1.71 1.71 1.71 1.74 1.77 1.79 1.80 1.80 1.78 1.76 1.77 1.78 1.82 1.85 1.85 1.87 1.90 1.94 1.91 1.91 1.96 1.92 1.90 1.87 1.87 1.89 1.93
0.33 0.33 0.37 0.36 0.32 0.30 0.32 0.28 0.30 0.36 0.51 0.61 0.69 0.73 0.81 0.67 0.46 0.44 0.66 0.93 0.96 0.95 1.03 1.04 0.99 1.01 1.00 0.96 0.96 1.00 1.05 1.15 1.21 1.25 1.25 1.27 1.25 1.23 1.29 1.29 1.30 1.36 1.49 1.54 1.54 1.50 1.50 1.47 1.46 1.47 1.51 1.58 1.62 1.64 1.66 1.66 1.62 1.61 1.61 1.62 1.60 1.62 1.66 1.68 1.70 1.72 1.72 1.70 1.67 1.68 1.72 1.76 1.79 1.77 1.77 1.75 1.73 1.70 1.72 1.77 1.82 1.85 1.83 1.89 1.88 1.85
0.33 0.29 0.29 0.30 0.37 0.38 0.36 0.31 0.29 0.24 0.48 0.62 0.68 0.68 0.78 0.55 0.59 0.77 0.88 0.96 1.03 1.02 1.00 1.01 1.02 1.02 1.03 0.97 1.02 1.03 1.07 1.12 1.16 1.21 1.25 1.25 1.24 1.25 1.26 1.23 1.21 1.25 1.29 1.36 1.41 1.45 1.43 1.38 1.32 1.30 1.34 1.42 1.46 1.49 1.51 1.51 1.47 1.48 1.48 1.46 1.50 1.58 1.62 1.64 1.64 1.65 1.63 1.62 1.63 1.65 1.67 1.68 1.68 1.70 1.72 1.71 1.71 1.67 1.64 1.67 1.71 1.75 1.77 1.73 1.69 1.67
0.44 0.30 0.33 0.36 0.42 0.32 0.33 0.28 0.29 0.42 0.59 0.72 0.65 0.54 0.68 0.73 0.86 0.93 0.95 0.90 1.02 1.05 1.05 1.07 1.09 1.10 1.09 1.04 1.01 1.03 1.05 1.07 1.13 1.18 1.23 1.24 1.25 1.27 1.27 1.24 1.19 1.19 1.23 1.25 1.28 1.29 1.30 1.30 1.29 1.28 1.28 1.31 1.33 1.34 1.35 1.33 1.29 1.31 1.31 1.32 1.40 1.42 1.45 1.49 1.53 1.55 1.54 1.55 1.56 1.57 1.59 1.59 1.59 1.60 1.61 1.64 1.64 1.61 1.57 1.58 1.61 1.65 1.68 1.67 1.63 1.61
0.42 0.35 0.39 0.33 0.49 0.40 0.37 0.45 0.57 0.64 0.69 0.76 0.73 0.72 0.80 0.88 0.99 0.99 0.97 0.93 0.96 1.02 1.12 1.08 1.07 1.12 1.12 1.10 1.07 1.04 1.01 1.05 1.08 1.15 1.13 1.14 1.15 1.16 1.16 1.16 1.16 1.15 1.15 1.14 1.15 1.18 1.15 1.12 1.13 1.17 1.18 1.18 1.14 1.15 1.16 1.15 1.09 1.11 1.11 1.18 1.22 1.20 1.22 1.25 1.28 1.29 1.30 1.32 1.35 1.37 1.38 1.40 1.42 1.45 1.48 1.48 1.50 1.48 1.45 1.47 1.52 1.54 1.60 1.61 1.59 1.58
0.48 0.47 0.54 0.46 0.48 0.62 0.65 0.67 0.73 0.72 0.74 0.78 0.81 0.84 0.82 0.93 1.04 1.01 0.93 0.89 0.96 1.01 1.09 1.01 1.03 1.05 1.09 1.11 1.04 1.04 1.03 1.04 1.07 1.11 1.11 1.11 1.09 1.10 1.12 1.13 1.14 1.18 1.19 1.18 1.16 1.13 1.09 1.05 1.03 1.01 1.00 1.03 1.03 1.00 1.01 0.99 0.96 0.89 0.94 1.02 1.04 1.04 1.02 1.02 1.02 1.03 1.05 1.06 1.08 1.09 1.12 1.11 1.11 1.10 1.09 1.12 1.16 1.20 1.25 1.29 1.33 1.36 1.41 1.47 1.48 1.48
0.51 0.53 0.51 0.44 0.57 0.49 0.44 0.67 0.69 0.72 0.79 0.82 0.88 0.91 0.95 1.00 1.02 1.05 0.99 0.96 0.99 1.03 1.06 1.10 1.08 1.08 1.09 1.10 1.06 1.02 1.02 1.06 1.06 1.08 1.10 1.09 1.08 1.08 1.08 1.06 1.07 1.07 1.05 1.03 1.03 1.01 0.97 0.94 0.93 0.93 0.94 0.94 1.00 1.01 1.02 1.00 1.01 1.01 1.01 1.00 1.00 0.99 0.98 0.96 0.97 0.95 0.94 0.93 0.95 0.96 0.98 0.97 0.95 0.96 1.00 0.99 0.98 1.00 1.05 1.07 1.09 1.14 1.17 1.21 1.25 1.28
0.42 0.58 0.47 0.48 0.50 0.47 0.51 0.64 0.74 0.82 0.87 0.93 0.89 0.89 0.92 1.01 1.07 1.10 1.08 1.08 1.12 1.15 1.15 1.13 1.12 1.08 1.11 1.07 1.07 1.05 1.06 1.11 1.09 1.08 1.08 1.08 1.09 1.10 1.09 1.07 1.05 1.04 1.03 1.01 0.96 0.90 0.85 0.86 0.85 0.85 0.86 0.86 0.90 0.90 0.87 0.87 0.90 0.92 0.91 0.90 0.90 0.90 0.89 0.90 0.90 0.87 0.87 0.88 0.90 0.92 0.96 0.99 1.00 0.96 0.95 0.98 0.99 0.97 0.96 0.99 1.02 1.03 1.05 1.10 1.13 1.17
0.50 0.51 0.37 0.47 0.46 0.56 0.66 0.69 0.74 0.78 0.78 0.84 0.97 1.00 0.97 1.01 1.01 1.06 1.10 1.11 1.13 1.10 1.12 1.14 1.17 1.12 1.11 1.07 1.09 1.06 1.07 1.11 1.13 1.12 1.10 1.10 1.09 1.08 1.08 1.08 1.09 1.09 1.08 1.04 1.00 0.93 0.83 0.80 0.77 0.76 0.75 0.78 0.83 0.84 0.82 0.81 0.82 0.85 0.86 0.88 0.90 0.92 0.90 0.88 0.89 0.85 0.84 0.86 0.88 0.87 0.89 0.89 0.91 0.91 0.91 0.90 0.92 0.94 0.96 0.93 0.90 0.89 0.93 1.02 1.08 1.14
0.47 0.38 0.47 0.48 0.44 0.45 0.46 0.56 0.66 0.49 0.57 0.78 0.88 0.97 0.96 0.94 0.87 0.91 1.02 1.01 1.04 1.06 1.07 1.06 1.08 1.13 1.13 1.11 1.09 1.06 1.04 1.08 1.12 1.13 1.10 1.09 1.07 1.07 1.07 1.06 1.07 1.07 1.08 1.10 1.08 1.05 1.00 0.92 0.87 0.83 0.78 0.78 0.82 0.83 0.83 0.80 0.80 0.85 0.90 0.93 0.95 0.96 0.93 0.91 0.91 0.89 0.88 0.89 0.88 0.88 0.87 0.87 0.86 0.87 0.87 0.87 0.87 0.86 0.85 0.87 0.86 0.84 0.80 0.79 0.84 0.91
0.41 0.40 0.41 0.42 0.41 0.40 0.50 0.63 0.67 0.66 0.70 0.77 0.87 0.89 0.94 0.94 0.88 0.82 0.90 0.96 1.00 1.06 1.06 1.02 0.98 1.00 1.03 1.04 1.11 1.07 1.04 1.05 1.06 1.10 1.07 1.06 1.06 1.06 1.06 1.04 1.03 1.02 1.02 1.05 1.03 1.03 1.02 0.99 0.92 0.86 0.81 0.80 0.82 0.82 0.82 0.82 0.83 0.84 0.86 0.88 0.89 0.92 0.94 0.91 0.89 0.91 0.92 0.91 0.90 0.92 0.91 0.89 0.88 0.88 0.87 0.85 0.82 0.80 0.78 0.77 0.80 0.79 0.77 0.74 0.72 0.72
Wind_Speed
20 21 22 22 22 20 19 18 17 14 12 11 10 9 9 9 9 9 9 9 11 13 15 18 20 19 20 19 17 16 15 16 18 18 17 19 18 18 18 18 18 17 16 16 16 15 15 15 15 15 15 15 15 15 14 14 14 14 13 14 13 12 12 12 12 12 11 11 11 10 10 10 10 10 10 10 10 9 9 9 8 8 8 9 8 8
19 21 23 23 22 21 19 18 18 17 14 12 11 10 10 10 9 8 9 10 10 12 14 17 19 19 20 19 18 18 16 16 18 18 18 19 19 18 18 19 18 17 16 16 16 16 16 16 15 15 15 15 15 15 14 14 14 14 14 14 14 13 12 12 12 12 11 11 10 10 10 10 10 10 10 10 10 9 9 8 8 8 8 8 8 8
17 20 23 23 22 20 19 19 19 18 16 14 12 12 11 11 10 8 10 10 9 11 14 16 19 19 19 19 19 20 18 16 17 17 19 20 20 19 19 19 19 17 17 17 17 17 16 16 16 16 15 15 15 14 14 14 14 14 14 14 14 13 12 12 13 12 12 11 10 11 10 10 10 10 10 9 9 9 8 8 8 8 8 8 8 7
17 18 20 20 21 20 20 20 19 17 16 15 14 13 12 12 11 9 11 11 9 11 13 16 18 19 20 19 20 22 20 17 15 16 18 21 21 20 20 20 19 18 18 18 17 17 17 17 16 16 16 15 15 14 14 14 14 14 14 14 14 13 13 13 13 13 12 11 11 10 10 10 9 9 9 9 9 9 8 8 8 8 8 8 7 7
17 18 17 18 20 21 21 20 19 18 17 16 15 14 12 13 13 10 11 12 10 10 12 15 17 19 21 21 21 22 20 18 16 15 17 21 22 21 20 20 20 19 19 19 18 18 18 17 17 16 16 16 15 15 15 15 14 14 14 14 14 13 13 13 13 13 12 11 11 10 10 10 9 9 9 9 9 8 8 8 8 8 8 8 7 7
16 18 17 18 20 21 21 21 20 19 17 15 16 15 13 13 12 11 12 13 11 12 13 15 16 19 22 22 22 22 21 20 18 16 18 20 21 21 21 21 20 20 20 20 19 18 18 18 17 17 17 16 16 16 16 15 15 14 14 14 14 14 13 13 13 13 13 12 11 11 10 10 10 9 9 9 9 8 8 8 8 7 8 8 7 7
15 16 17 19 20 20 20 21 20 19 16 15 16 15 13 13 12 13 14 12 12 12 13 14 15 15 20 23 23 23 23 21 20 18 18 20 21 21 21 21 20 20 21 20 20 19 19 18 18 17 17 17 16 16 16 16 15 15 14 14 14 14 13 13 13 13 13 12 11 11 11 10 10 10 9 9 8 8 8 8 8 7 7 7 7 6
13 13 15 18 19 19 20 21 21 19 17 16 15 14 13 13 13 13 12 12 12 11 12 14 15 14 18 23 24 24 24 22 21 21 20 20 21 22 22 22 21 21 21 21 20 20 20 20 19 18 18 17 17 17 16 16 15 15 15 14 14 14 14 13 13 13 13 12 12 11 11 11 10 10 9 9 8 7 7 8 8 7 7 7 7 6
12 13 15 18 18 19 19 20 20 19 17 16 15 14 13 12 12 12 11 11 11 11 12 15 16 14 16 21 24 25 26 24 23 22 21 21 22 23 23 22 21 21 22 22 21 20 20 20 20 19 18 18 17 17 17 16 16 15 15 14 14 14 14 14 14 13 13 12 12 11 11 10 10 9 9 8 8 8 8 8 8 7 7 7 7 6
12 13 15 16 17 18 18 19 20 18 17 16 15 13 11 10 10 10 10 10 11 11 11 14 16 14 14 19 24 26 27 26 23 22 22 22 23 24 23 22 22 22 22 22 22 21 21 21 20 20 19 18 18 18 17 17 16 15 15 15 14 14 14 14 14 13 12 12 11 11 11 10 10 9 9 9 8 8 8 8 8 7 7 7 6 6
12 13 13 15 17 17 16 16 17 17 18 17 15 13 11 10 10 9 9 9 10 10 10 13 16 15 13 18 24 25 25 25 24 23 22 23 24 24 23 23 22 22 22 22 22 22 22 21 21 21 20 19 19 18 18 17 17 16 16 15 14 14 14 14 14 13 12 12 11 11 11 10 10 10 9 9 9 9 9 8 8 8 7 7 6 6
10 11 12 14 16 15 14 14 16 18 19 17 15 14 12 10 10 9 9 9 9 10 10 11 13 14 14 17 22 24 24 24 25 24 23 24 24 24 24 23 22 23 23 23 22 22 22 21 21 21 21 20 20 19 19 18 17 17 16 16 15 15 15 15 14 14 13 12 12 11 11 11 10 10 10 10 10 9 9 9 8 8 7 7 6 6
9 11 11 11 13 15 15 15 17 18 18 16 16 15 12 10 10 9 9 9 9 10 10 9 11 13 15 17 20 23 25 26 26 25 24 24 25 25 24 24 23 23 24 23 23 22 22 21 21 22 22 21 21 20 20 19 18 18 17 17 16 16 15 15 15 14 13 13 12 12 11 11 11 11 10 10 10 9 9 9 8 8 8 7 7 7
8 10 9 9 12 15 16 17 19 18 18 18 17 16 13 10 10 10 10 9 9 10 10 9 10 11 12 15 20 23 25 27 27 27 26 25 25 25 25 24 23 23 24 24 24 23 22 22 22 22 22 22 21 21 20 20 19 18 18 17 17 17 16 15 15 15 14 13 12 12 12 11 11 11 11 10 10 9 9 8 8 8 8 8 7 7
9 9 9 8 11 14 15 18 19 18 18 18 16 15 14 13 12 12 12 11 9 9 9 9 10 10 9 10 16 22 24 27 28 28 28 26 25 25 25 25 24 24 24 24 25 24 24 23 23 23 23 22 22 22 21 20 20 19 19 18 18 17 17 16 16 15 14 14 13 13 12 12 12 11 11 10 10 9 9 9 9 8 8 8 7 7
10 11 11 9 10 13 15 16 16 16 17 17 16 14 13 13 12 11 11 11 10 8 9 10 10 10 9 8 11 18 22 25 27 27 28 27 26 25 25 26 25 24 25 25 25 25 25 25 24 23 23 23 23 22 22 21 20 20 19 19 19 18 17 17 17 16 15 15 14 13 13 12 12 12 11 11 10 10 10 9 9 9 8 8 7 7
9 10 10 9 9 12 14 16 16 16 16 16 15 15 13 12 12 11 10 10 9 8 9 9 9 9 9 8 9 16 20 22 25 26 27 28 27 26 26 26 26 25 25 25 26 26 25 25 25 24 24 23 23 23 22 22 21 20 20 20 19 19 18 17 17 17 16 16 15 15 14 13 13 12 12 11 11 11 10 10 9 9 8 8 8 8
10 10 10 8 8 10 13 15 15 16 15 14 15 15 13 11 11 11 10 9 9 9 9 9 9 9 8 7 9 14 18 21 23 25 26 27 28 28 27 27 27 26 25 25 26 26 26 26 26 25 25 24 24 23 23 22 21 21 20 20 20 19 18 18 18 17 17 17 16 16 15 14 13 13 12 12 12 11 11 10 10 9 9 9 8 8
9 9 10 10 8 9 11 13 14 15 15 13 14 14 13 12 12 12 11 10 10 9 9 9 9 9 8 8 8 12 17 20 21 23 25 27 29 29 28 28 28 27 26 25 25 25 26 26 26 26 26 25 24 24 23 23 22 21 21 21 21 20 19 18 18 18 18 17 17 16 16 15 14 14 13 12 12 12 12 11 11 10 10 9 9 9
8 7 10 11 8 8 10 12 13 14 14 13 13 14 13 13 14 13 12 12 11 9 9 8 8 8 8 8 8 11 15 19 20 21 22 26 29 29 28 28 28 28 27 26 25 25 25 26 26 27 26 26 25 24 24 23 22 22 22 21 21 21 20 19 18 18 18 18 17 17 16 16 15 14 14 13 13 13 12 12 11 11 11 10 10 9
9 8 10 10 9 8 10 10 12 14 14 13 13 14 14 13 13 13 13 12 11 10 9 8 8 8 7 6 7 9 13 17 18 18 18 21 27 28 27 27 27 27 27 27 26 25 25 26 27 27 27 26 26 25 24 24 23 22 22 22 22 21 21 20 19 19 19 19 18 18 17 16 15 15 14 14 13 13 13 12 12 11 11 11 10 10
10 9 9 10 9 9 9 9 11 13 13 13 13 13 13 14 13 13 13 13 11 10 11 10 8 8 6 5 6 7 10 14 16 16 16 18 22 25 25 26 26 26 26 27 27 26 25 25 26 27 27 27 27 26 25 24 24 23 23 22 22 22 22 21 20 20 19 19 19 18 18 17 16 16 15 15 14 14 13 13 13 12 11 11 11 11
11 11 10 11 12 11 11 10 10 11 13 13 13 13 13 13 13 13 13 13 12 11 11 11 9 8 6 5 4 5 8 12 14 16 16 17 20 21 22 24 25 26 26 26 27 26 25 24 24 25 25 26 27 27 26 25 24 24 23 23 23 22 22 21 21 20 20 20 19 19 18 18 17 16 16 16 15 15 14 14 13 13 12 12 11 11
10 11 10 11 12 11 10 11 10 10 12 13 12 12 12 12 13 15 14 14 14 13 11 11 11 9 7 4 3 5 7 10 12 14 16 18 19 19 19 20 22 25 26 27 27 27 27 26 25 24 24 24 25 25 26 26 26 25 24 24 23 23 22 21 21 21 21 20 20 19 19 18 18 17 17 17 16 16 15 15 14 13 13 13 12 12
9 11 10 10 10 9 10 10 10 9 10 12 12 12 12 13 13 13 14 13 14 14 13 12 11 11 8 5 3 4 6 8 9 12 15 16 18 18 17 17 19 20 23 25 27 27 27 27 27 27 27 26 24 24 23 24 26 27 26 25 24 24 23 22 21 21 21 21 20 20 19 19 18 18 18 17 17 17 16 16 15 14 14 14 14 13
8 10 11 11 10 11 11 12 11 11 11 11 12 12 12 12 12 13 13 13 14 15 14 13 11 11 9 7 4 4 5 6 8 10 12 14 16 17 16 16 17 18 19 21 24 25 26 27 26 27 29 30 28 26 24 23 23 25 25 25 25 24 23 22 21 21 22 21 21 20 20 20 19 19 18 18 18 17 17 17 16 15 15 15 15 15
7 9 11 13 13 13 13 14 13 12 11 11 12 12 12 11 12 13 14 15 15 14 14 14 12 10 11 9 7 6 6 6 7 9 11 12 13 14 15 15 15 16 17 18 20 22 24 25 25 25 27 30 31 30 28 26 24 24 23 23 23 23 23 22 21 21 22 22 22 21 21 20 20 19 19 18 18 18 17 17 17 16 16 16 16 16
6 8 11 13 14 15 14 14 13 11 10 11 11 11 11 11 11 12 14 16 16 14 15 15 13 11 11 11 10 9 8 8 8 9 10 11 11 12 13 14 14 14 16 17 18 19 21 23 24 23 24 27 29 30 30 29 28 27 25 25 24 24 24 23 22 22 22 22 22 21 21 21 20 20 19 19 18 18 18 18 17 17 16 16 16 16
7 9 11 12 14 17 17 15 13 11 11 11 9 9 11 11 11 11 14 16 17 16 15 14 13 12 12 12 11 11 10 9 9 8 9 9 10 11 13 14 14 14 14 16 17 17 19 21 23 23 23 23 26 29 30 30 30 30 29 28 27 26 24 24 23 23 22 22 22 22 21 20 20 20 19 19 18 18 18 18 17 17 17 17 17 16
8 9 10 11 12 16 18 16 14 12 12 11 10 9 10 12 13 12 12 13 14 15 14 13 12 12 12 12 11 11 11 10 9 8 8 9 9 10 11 12 13 13 13 14 15 16 18 19 20 21 22 23 24 27 28 30 30 30 30 30 29 27 26 25 24 24 23 23 23 22 21 20 20 20 20 19 19 19 18 18 18 18 17 17 17 17
8 9 10 10 10 13 16 17 16 14 13 12 11 11 10 12 13 13 12 13 13 14 13 12 11 12 12 12 10 11 11 11 9 9 9 9 9 9 10 10 10 11 11 12 12 14 15 17 18 19 20 22 23 25 26 28 29 29 29 28 29 28 27 26 25 24 23 23 23 23 22 21 21 21 20 20 19 19 19 19 19 19 18 18 18 18
8 9 10 9 10 12 15 16 18 17 15 13 13 11 11 12 13 14 13 13 14 15 14 12 12 12 13 12 11 10 11 11 9 9 8 8 9 9 9 9 9 9 10 10 11 11 13 14 15 17 18 20 21 23 24 26 27 28 28 28 28 28 27 27 26 25 23 23 23 23 23 22 22 21 21 20 20 19 19 19 19 19 19 19 19 19
9 9 10 10 10 13 13 13 16 17 16 15 15 13 13 13 14 14 14 13 14 16 15 13 13 13 13 12 11 11 10 10 9 8 8 9 9 9 9 9 8 8 8 9 9 10 10 12 13 14 16 18 19 22 23 24 25 26 26 27 27 27 27 26 26 25 24 23 23 23 23 23 22 22 21 21 21 20 20 19 19 19 19 20 20 19
9 9 10 10 11 13 14 12 13 15 17 17 16 14 13 13 13 13 14 14 15 16 16 15 13 13 13 12 12 12 11 10 10 9 9 9 9 9 9 9 8 8 8 8 9 9 10 10 11 12 13 15 17 19 21 22 23 24 24 24 25 25 25 24 24 24 24 23 22 23 22 22 22 22 22 21 21 21 21 21 20 20 20 20 20 20
8 8 10 10 10 12 13 11 12 16 18 18 17 15 15 14 13 12 12 14 14 16 17 16 14 14 13 12 12 12 11 10 9 9 9 10 10 10 9 9 9 8 8 8 8 9 9 9 9 9 10 11 13 16 18 20 21 22 23 22 22 22 22 21 21 21 22 22 22 23 23 23 22 22 22 22 21 22 22 22 22 22 22 22 22 22
9 9 9 9 10 12 11 11 14 17 18 18 17 16 16 16 14 12 12 14 14 16 17 17 15 14 13 13 12 11 11 10 9 9 9 10 10 10 10 9 9 9 8 8 7 7 7 8 8 8 8 8 9 11 14 16 17 18 19 20 20 20 20 19 19 19 20 21 21 22 22 23 23 22 22 22 22 22 22 22 23 23 24 24 24 24
9 9 9 9 10 11 12 13 15 15 16 18 18 17 18 18 16 15 14 15 16 16 16 17 16 14 13 13 12 11 11 10 10 10 10 9 9 10 9 9 9 9 9 8 7 7 7 8 8 8 7 7 7 8 9 11 13 14 15 16 17 17 17 17 17 17 18 19 19 20 20 21 21 21 21 21 22 22 22 23 23 24 24 24 24 24
8 10 10 10 10 10 11 12 13 14 16 18 19 19 19 18 17 16 15 16 17 17 16 17 17 15 13 13 12 12 11 11 11 11 11 10 10 9 9 9 9 9 9 9 8 8 8 9 8 8 8 8 7 7 8 9 10 11 12 12 13 14 14 14 14 14 15 15 16 17 18 18 19 19 19 19 19 20 21 21 22 23 23 23 23 23
8 9 10 10 10 11 11 12 14 15 16 17 18 19 19 18 18 17 15 16 18 18 17 17 17 16 15 13 13 12 11 10 11 12 12 11 11 10 9 9 9 9 9 9 9 9 9 9 9 9 9 8 8 8 9 9 10 10 10 10 11 11 11 11 11 12 12 12 13 14 15 16 17 17 17 18 18 19 19 20 21 22 21 21 21 22
8 9 9 10 11 11 12 12 14 15 16 17 18 19 18 18 18 16 15 17 19 19 18 17 17 16 15 13 12 12 12 11 11 11 11 11 10 10 10 10 10 10 10 10 10 10 10 10 10 9 9 9 9 9 10 10 10 10 10 10 10 10 10 10 11 11 11 11 11 12 13 14 15 17 18 18 19 19 20 20 21 21 20 20 20 20
8 9 9 10 10 11 12 12 14 15 16 17 18 19 18 17 17 17 17 18 18 18 19 18 17 16 14 13 12 12 12 12 11 11 11 10 9 9 9 9 9 9 9 10 11 10 10 11 10 10 10 10 10 10 10 10 10 10 10 10 10 11 11 12 12 12 11 11 11 12 12 13 14 15 16 17 18 18 19 20 20 20 19 19 19 18
8 8 9 9 10 11 11 12 12 13 14 16 17 17 17 17 18 19 18 17 17 18 18 18 17 16 14 14 13 12 12 11 11 10 11 10 10 10 9 8 8 7 8 9 10 10 10 10 10 10 10 10 10 10 10 11 10 10 10 9 10 10 11 12 12 12 12 12 12 12 13 13 13 14 14 15 15 16 17 18 18 18 18 18 17 17
8 7 8 10 10 10 10 11 11 12 13 14 15 16 17 18 18 18 16 16 17 17 17 17 17 16 15 14 14 14 13 11 10 10 10 10 10 10 9 9 9 9 8 8 8 9 9 9 9 9 9 9 9 9 9 9 9 10 10 10 10 10 11 11 11 11 12 12 12 12 12 12 12 13 13 14 14 15 15 16 17 17 17 17 16 16
8 7 8 10 10 9 10 11 12 12 13 13 15 16 17 18 18 17 16 16 16 16 16 15 16 16 16 16 15 15 14 12 12 11 11 10 10 10 10 9 9 9 9 8 8 9 9 8 8 8 8 8 8 7 8 8 8 9 9 10 10 10 11 11 11 11 11 11 12 12 12 12 12 13 13 13 14 14 14 15 15 16 16 16 16 16
8 8 8 8 9 9 11 12 13 12 12 12 14 16 16 16 17 17 17 16 15 15 15 15 15 16 16 16 16 15 14 13 12 11 11 11 11 10 10 10 9 9 8 8 8 9 9 9 9 9 8 8 8 8 8 8 8 8 9 10 10 10 10 10 11 11 11 11 12 12 13 13 13 13 14 14 14 14 14 15 15 15 16 17 17 17
7 7 6 6 7 8 9 10 10 10 9 10 12 14 16 16 17 18 17 15 14 14 14 15 16 16 16 15 15 15 14 14 12 11 11 11 10 9 9 9 9 9 9 9 9 9 10 10 9 9 9 8 8 8 8 8 8 9 9 10 10 11 11 11 11 11 11 11 12 12 13 13 14 14 14 15 15 15 15 15 15 15 16 16 17 17
6 6 5 5 6 6 7 8 8 8 8 8 10 12 15 16 16 16 16 15 14 14 14 15 15 15 14 14 14 14 14 13 13 12 11 11 10 9 8 8 9 10 10 10 10 10 10 10 10 9 9 9 9 9 9 9 9 9 10 10 11 11 12 12 12 12 12 12 13 13 14 14 14 15 15 15 15 16 16 16 16 16 16 16 17 17
5 5 4 4 5 6 6 7 6 7 8 9 10 13 15 16 15 14 14 15 15 15 15 14 14 13 13 13 13 14 14 14 13 13 12 11 11 10 9 9 9 10 10 10 10 10 11 10 10 10 10 10 10 10 10 10 10 11 11 11 12 12 13 13 13 14 14 14 14 14 15 15 15 16 16 16 16 16 17 17 17 17 18 18 18 18
3 4 4 4 5 5 5 6 6 6 8 10 12 13 14 15 15 13 13 13 14 13 13 13 13 13 12 12 12 12 13 14 13 13 12 12 12 11 11 11 10 10 11 11 11 11 11 11 11 11 11 11 11 11 11 11 12 12 12 12 12 13 13 14 15 15 15 16 15 15 16 16 16 17 17 17 18 18 18 18 19 19 19 19 20 20
2 3 4 3 5 6 5 6 8 7 8 10 12 12 13 14 14 13 12 12 12 12 12 12 11 11 11 11 11 11 11 12 12 12 12 12 12 12 12 12 11 11 11 11 11 11 11 11 12 12 12 12 12 12 12 13 13 14 14 14 14 15 15 15 16 16 17 17 17 17 18 18 18 18 18 19 20 20 20 20 21 21 21 21 21 21
3 4 5 5 5 6 7 8 9 8 8 10 11 11 12 13 13 12 12 12 11 11 11 11 11 10 10 10 10 10 11 11 12 11 11 11 12 12 12 12 12 12 11 11 11 11 11 12 12 12 12 13 13 13 13 14 14 15 15 16 16 17 17 17 17 18 18 19 19 19 20 20 20 20 20 21 21 21 22 22 22 22 22 22 23 23
Wind_Direction
214 215 216 213 212 210 208 210 213 215 214 213 218 222 223 224 223 218 212 214 212 202 200 199 194 193 193 192 190 189 195 196 191 190 189 187 186 180 178 178 176 175 174 173 170 167 165 165 163 163 164 164 164 164 165 165 165 163 162 162 161 158 156 153 153 152 151 150 148 149 149 148 148 147 147 147 146 145 145 144 142 139 135 132 130 129
216 216 217 214 212 211 208 210 215 218 217 214 217 217 221 225 221 217 212 211 214 206 202 199 193 192 192 191 192 192 195 198 194 193 189 187 187 183 180 181 180 178 178 175 173 171 168 166 165 164 165 166 165 166 168 167 167 166 165 165 164 163 161 158 157 157 155 153 151 150 150 150 149 149 148 147 146 145 145 147 146 143 140 136 132 130
221 219 220 216 213 211 208 210 214 216 214 215 216 214 219 220 213 213 209 207 213 209 203 199 193 192 193 191 193 195 196 196 196 197 192 187 187 185 182 183 183 182 181 177 175 175 171 168 168 167 167 168 168 167 168 169 168 168 168 168 167 167 167 163 162 161 159 157 155 153 152 152 151 150 149 147 147 146 145 147 148 146 144 141 136 132
222 219 217 214 211 211 212 213 212 211 213 215 212 211 217 216 214 219 210 202 211 211 203 199 196 196 195 193 194 197 200 199 198 202 197 190 189 188 186 186 185 184 183 180 178 177 174 171 171 170 170 171 171 170 169 169 169 169 170 170 169 170 170 168 166 165 162 159 158 158 157 156 155 153 152 151 150 149 147 148 149 149 148 146 141 136
220 217 211 209 207 208 212 212 208 207 213 216 212 212 216 215 218 221 206 198 205 210 203 197 198 201 197 194 196 199 202 202 200 203 201 195 192 190 188 188 188 186 186 183 180 179 177 175 175 174 173 173 174 173 172 172 170 170 171 172 171 170 170 170 169 166 164 162 161 160 158 158 158 156 156 157 157 154 152 152 151 151 152 151 147 144
220 216 210 211 208 204 208 210 206 205 211 216 217 216 215 213 212 204 196 198 204 210 207 199 199 203 199 197 200 200 201 203 202 203 203 198 196 194 190 190 191 190 188 187 184 182 180 179 178 177 176 175 176 177 176 175 174 173 173 174 173 172 171 172 171 168 168 167 166 164 162 160 160 160 161 162 162 160 158 157 155 154 156 156 155 152
213 211 207 210 208 202 205 208 205 204 207 215 218 213 209 208 204 199 199 204 209 210 210 207 205 205 202 202 204 201 201 204 206 206 206 201 199 198 194 192 193 192 190 189 188 185 183 182 181 180 179 179 179 180 179 178 177 177 176 176 175 175 173 173 173 172 172 172 171 170 169 168 166 166 167 167 165 163 161 160 158 157 158 161 161 158
208 213 209 207 206 202 204 208 206 202 206 216 214 202 199 203 204 207 209 212 213 208 208 212 211 210 208 207 205 202 203 207 209 209 209 205 202 201 198 195 194 193 191 190 190 188 185 184 184 183 183 183 182 182 181 181 181 180 178 177 177 178 177 176 176 176 175 175 175 174 174 175 174 173 173 172 169 166 165 164 162 162 162 164 164 162
205 213 211 205 204 203 206 208 203 199 206 213 204 193 194 200 206 211 214 217 216 209 210 213 212 214 216 208 203 204 206 208 210 210 210 209 206 203 201 198 195 195 193 192 192 191 189 187 187 187 186 186 185 184 184 184 185 184 182 181 181 182 181 180 179 179 179 179 178 177 176 178 178 178 177 176 172 169 168 168 167 168 168 168 168 167
209 210 206 201 202 205 208 206 199 196 203 203 191 186 191 198 205 209 212 214 214 214 215 215 211 214 220 210 204 206 208 208 209 209 210 209 207 204 202 200 197 196 194 193 194 193 192 190 189 189 189 188 188 187 187 187 188 187 186 186 185 186 186 184 184 183 183 184 182 181 181 181 181 180 179 178 175 171 172 173 172 173 175 173 174 175
220 214 205 204 204 202 202 202 196 191 192 191 186 186 189 197 204 204 209 210 210 217 221 219 215 215 222 215 209 209 209 207 206 206 207 207 206 204 203 201 198 197 196 195 195 195 195 194 192 191 191 191 190 190 190 190 192 191 190 190 191 191 189 188 188 188 189 189 188 187 187 186 185 183 182 181 180 178 177 179 179 178 179 178 179 181
220 211 206 208 203 195 192 194 191 186 186 189 193 192 188 199 206 204 212 212 212 218 217 216 215 216 224 222 213 212 212 208 206 206 204 204 204 204 203 203 201 199 198 197 197 197 197 197 195 194 193 193 192 192 193 194 195 194 194 195 194 194 192 191 192 192 194 194 192 192 192 191 189 187 186 186 187 186 185 186 185 183 183 184 184 184
212 207 207 208 199 191 189 191 191 191 193 196 198 196 194 204 211 212 218 220 221 222 216 213 215 222 233 230 219 215 213 210 208 206 205 205 204 204 204 204 203 201 200 199 199 198 199 199 198 196 195 195 195 195 195 196 197 198 198 199 198 197 196 196 196 196 197 198 196 196 196 195 194 192 191 192 192 192 191 190 190 188 188 190 191 190
206 204 203 203 202 198 194 191 193 198 200 200 201 201 202 204 208 214 219 223 227 226 220 218 221 230 242 238 223 216 213 210 208 207 206 206 206 205 205 204 204 203 202 202 201 200 200 201 200 199 198 198 198 198 198 199 200 201 201 201 200 200 200 200 200 199 200 201 201 200 200 199 198 197 197 197 198 197 195 194 195 195 196 196 198 198
195 196 197 200 205 206 202 197 195 197 200 205 208 207 208 208 207 210 213 215 220 222 218 217 224 230 239 242 224 214 211 208 207 208 208 208 208 207 206 205 205 204 203 203 203 202 202 202 203 202 201 200 200 200 201 201 201 202 203 203 202 202 203 203 203 203 203 203 204 204 203 203 202 202 202 203 203 202 200 199 199 201 202 203 205 205
194 198 206 210 206 202 201 201 196 192 197 207 208 206 214 215 207 204 209 209 207 216 220 219 231 236 237 248 227 211 208 205 203 206 208 209 209 206 206 207 206 205 204 204 205 204 204 204 205 204 203 203 203 202 203 204 203 203 204 204 203 204 205 206 206 207 206 206 207 207 206 206 208 208 208 208 207 206 206 206 204 204 206 209 211 211
199 204 212 211 208 203 199 198 198 195 198 204 207 209 217 215 203 199 210 215 209 219 225 220 233 242 243 252 228 209 209 207 205 205 206 208 208 206 205 207 207 206 205 205 206 205 205 205 206 207 206 205 204 204 205 205 206 206 205 205 205 206 207 208 208 209 209 209 209 210 209 210 211 212 213 212 211 210 210 210 210 209 210 213 214 215
200 212 217 201 206 216 203 194 198 203 200 198 205 212 214 214 209 203 209 217 217 225 227 221 229 234 236 246 226 210 210 209 208 208 208 207 207 207 206 206 207 207 205 206 207 206 206 206 207 208 209 208 206 206 206 207 208 208 209 208 207 208 209 209 210 211 211 211 211 212 212 213 214 214 215 216 215 215 213 214 214 214 216 216 215 216
199 213 218 202 205 219 205 191 198 211 211 205 207 210 207 210 214 210 208 210 215 224 227 226 232 231 230 236 223 212 212 210 208 209 211 211 208 207 207 206 207 207 207 207 207 208 208 208 208 209 210 211 210 209 209 209 210 210 211 212 210 210 211 211 212 212 213 214 214 215 215 216 216 216 217 217 218 218 217 217 216 217 220 220 219 219
205 206 214 212 212 210 201 195 199 209 216 214 211 211 211 212 214 214 213 209 209 216 221 225 233 235 236 232 216 210 210 207 206 208 212 213 210 207 207 207 208 208 209 208 208 209 210 210 210 210 211 213 212 212 211 211 211 211 213 214 213 212 213 213 214 214 214 215 216 217 217 218 218 218 218 218 218 219 220 220 219 220 221 222 222 222
215 209 214 220 214 199 197 200 200 204 210 212 210 212 216 217 216 216 217 214 208 209 213 217 229 240 242 225 210 210 206 201 201 204 206 207 204 204 205 207 208 210 210 210 210 211 212 212 212 212 213 214 214 214 213 212 213 213 214 215 214 214 214 215 215 215 215 216 217 218 219 219 220 220 220 220 219 220 221 222 222 222 223 223 224 225
222 217 217 221 215 205 205 209 209 205 202 201 203 208 213 213 211 210 216 218 213 211 211 209 219 237 242 226 212 209 201 195 194 195 195 194 195 199 204 207 209 210 211 212 212 212 212 213 214 214 214 214 215 215 214 214 214 213 213 215 215 215 216 217 217 216 216 217 218 219 220 221 221 222 222 222 221 221 221 223 224 224 225 226 226 227
222 217 217 219 218 217 218 217 213 205 198 198 202 208 211 212 209 206 212 216 211 212 215 212 217 228 235 236 218 201 195 191 189 188 187 187 190 196 204 209 212 213 213 213 212 212 212 212 214 216 216 216 216 216 215 214 215 215 214 214 215 216 217 218 218 217 217 218 219 220 221 222 223 223 224 224 224 224 223 224 225 225 227 229 229 229
223 220 221 222 221 221 219 215 209 203 201 205 212 216 216 219 217 212 214 214 208 209 212 213 220 224 227 237 217 185 181 184 188 188 184 184 190 197 204 210 212 213 212 212 212 214 214 214 215 216 217 217 217 218 218 217 216 216 215 215 215 216 217 218 219 218 218 218 219 220 221 223 224 224 225 225 226 226 226 226 228 229 230 231 231 230
227 220 216 215 219 221 218 216 215 215 211 212 221 226 223 225 225 220 219 216 212 212 208 208 218 222 221 222 200 171 169 176 186 189 186 185 190 197 203 206 207 207 208 210 212 214 215 216 218 218 218 218 217 219 220 220 219 218 217 216 215 215 216 217 218 219 218 218 219 220 221 222 225 225 226 226 226 227 227 228 230 231 232 233 232 232
224 217 209 203 205 210 214 216 220 225 223 221 227 232 229 227 226 221 216 213 213 215 211 209 215 218 215 211 195 177 170 173 182 187 190 191 193 197 201 201 202 203 204 207 210 213 215 217 218 219 219 219 219 218 219 220 221 220 219 218 216 215 216 217 219 219 219 219 220 221 222 222 224 226 226 227 227 228 228 228 230 233 235 236 235 236
219 217 211 203 201 206 209 213 217 221 222 224 230 234 233 231 227 218 212 212 214 215 216 216 213 210 212 211 203 192 178 171 174 180 188 195 197 200 201 201 202 204 206 207 210 213 216 218 218 218 219 220 220 220 219 219 219 219 218 218 216 215 216 218 220 221 221 221 222 222 223 223 224 226 227 228 228 229 229 229 231 234 236 237 238 239
219 219 216 209 210 212 211 214 218 218 219 223 228 232 232 235 231 218 215 218 216 213 220 223 215 209 214 214 208 203 192 180 177 179 186 193 197 201 204 204 204 205 208 211 212 214 216 218 218 217 217 218 219 220 219 219 218 218 218 218 217 217 218 219 220 222 222 222 223 224 225 225 225 226 227 228 229 230 230 230 233 235 237 238 239 242
214 219 218 213 217 219 217 217 217 215 219 222 223 226 229 234 232 223 223 224 217 214 223 226 215 211 216 214 210 209 204 194 187 185 187 190 195 200 203 205 206 208 211 213 215 216 216 217 219 219 220 220 219 219 219 218 218 218 217 217 217 218 220 220 220 221 221 222 223 224 225 226 226 226 227 229 230 231 231 232 234 236 237 239 240 243
220 224 223 216 219 221 220 221 218 217 223 227 227 228 227 228 230 229 229 226 217 214 221 222 213 212 216 214 210 209 208 202 196 193 192 191 193 197 202 208 212 214 216 215 217 219 218 218 220 221 222 222 220 218 217 217 217 217 217 217 218 219 220 221 220 220 221 222 223 223 224 225 227 227 227 228 230 232 233 234 236 238 239 241 242 244
227 227 229 222 222 226 225 224 222 220 224 229 234 238 234 228 229 230 230 228 220 215 218 218 214 213 214 212 207 206 206 203 200 199 199 199 197 196 199 205 211 213 214 215 217 219 219 220 221 221 220 220 220 218 216 215 215 216 216 217 218 219 220 221 221 221 222 222 222 222 223 225 226 227 227 228 229 231 233 235 237 239 241 243 245 247
226 228 234 229 227 230 228 225 225 225 227 232 236 240 238 229 225 226 227 228 225 221 220 220 217 213 211 209 207 206 205 204 206 208 208 209 208 205 203 203 205 207 210 214 219 221 220 222 224 223 221 220 220 218 216 214 214 215 216 218 219 219 219 220 220 221 222 222 223 224 224 224 225 226 227 228 230 232 234 236 238 240 242 244 245 247
226 228 234 232 230 233 233 229 226 226 229 232 230 229 230 226 224 226 228 229 228 224 219 217 218 217 213 210 211 211 210 212 216 217 216 215 215 214 213 211 209 209 210 214 218 219 220 223 224 223 222 221 220 219 217 215 214 215 216 217 218 218 218 219 220 221 221 222 224 224 223 224 225 226 229 230 232 234 236 238 240 241 243 244 246 248
228 229 233 232 230 235 239 237 229 224 225 227 225 221 220 220 219 222 224 225 226 223 217 215 221 223 218 216 218 216 213 215 218 217 216 215 217 216 215 214 213 210 207 208 211 213 214 215 216 216 217 218 217 216 216 216 216 216 217 218 219 218 217 217 218 219 219 220 221 220 221 224 226 228 231 233 234 237 239 240 242 243 244 245 247 249
227 229 233 233 231 235 239 237 230 226 225 226 225 221 216 214 211 212 219 224 224 221 217 216 223 227 219 215 218 215 211 212 213 214 213 212 213 212 210 213 215 212 209 208 208 209 208 207 205 205 207 210 210 210 212 214 216 217 219 220 220 217 215 215 218 218 218 219 220 219 221 226 228 230 233 235 237 239 241 243 244 245 247 248 249 251
220 225 231 235 236 237 237 231 228 231 230 228 227 224 220 219 216 214 221 228 227 224 220 216 221 227 216 204 205 210 211 210 209 214 216 213 214 213 210 212 215 214 213 210 205 203 201 198 195 195 197 197 197 200 204 208 211 213 215 217 215 213 213 215 216 217 217 219 222 223 225 228 231 233 236 238 240 242 244 247 248 249 250 250 251 252
221 228 235 241 240 237 234 232 232 235 234 229 226 224 221 222 222 219 221 228 228 225 222 217 217 223 217 203 200 210 216 213 213 220 221 218 220 221 216 215 217 217 216 212 208 203 200 198 194 192 192 189 187 190 191 194 198 202 205 208 208 209 212 214 214 213 214 217 221 225 228 230 232 235 239 242 243 244 247 250 251 252 252 253 254 255
237 237 234 237 241 238 234 235 234 232 233 229 226 226 224 222 222 219 220 228 228 223 220 218 215 217 217 213 212 217 220 218 220 225 223 220 225 228 223 221 221 219 217 215 212 211 211 210 207 203 201 197 197 198 193 189 192 196 198 201 203 205 209 211 212 211 212 217 222 226 228 231 232 235 239 242 244 246 248 250 252 254 256 257 259 260
250 249 241 237 241 239 234 234 231 229 232 229 225 226 226 224 222 220 224 231 228 221 219 219 216 216 217 219 220 219 218 219 223 226 224 222 227 232 230 228 226 222 222 219 215 215 217 217 214 213 213 211 209 208 204 200 201 201 200 200 202 205 207 207 208 211 216 221 225 227 228 230 233 236 239 243 246 248 250 253 256 259 261 262 263 263
250 252 247 241 240 238 234 236 236 234 234 230 226 225 225 224 222 220 226 230 224 218 219 219 218 219 219 218 219 217 217 217 218 221 221 219 224 229 229 231 230 226 223 222 219 217 216 216 216 218 220 220 218 216 214 213 212 211 211 212 214 219 220 217 216 219 224 227 230 232 235 237 240 243 246 248 250 252 254 256 258 262 264 264 265 265
247 247 243 237 237 236 234 236 239 239 236 231 227 224 222 222 221 220 223 225 218 214 217 218 218 220 219 219 221 218 217 215 212 214 218 217 218 221 220 222 226 223 218 216 215 215 215 216 218 219 221 222 221 220 218 216 216 218 220 222 225 228 229 228 228 230 232 235 237 241 244 246 247 249 250 251 251 252 254 256 258 260 262 263 264 265
240 242 242 238 237 238 235 235 239 242 237 227 223 222 220 219 222 222 222 219 212 211 214 217 218 218 217 219 219 210 206 207 207 211 216 217 215 212 208 207 209 208 206 205 207 211 216 219 219 220 223 225 224 223 220 218 221 224 226 228 230 231 232 232 234 237 239 242 245 247 249 250 250 251 253 254 253 253 254 256 257 259 260 262 263 264
237 240 245 242 239 238 238 236 235 237 236 227 220 220 220 219 221 220 216 213 211 211 212 214 217 217 214 214 211 203 199 203 205 208 212 213 212 210 207 205 203 202 202 202 199 199 202 207 208 209 213 216 217 219 220 219 223 227 229 232 234 235 236 237 239 241 242 244 246 248 248 249 250 252 254 256 257 257 256 257 258 258 259 259 260 261
244 243 247 246 243 237 235 235 233 234 236 229 219 218 219 218 216 211 207 207 209 210 209 209 211 211 208 205 203 200 200 203 206 212 217 218 217 215 213 213 210 206 206 205 201 195 191 190 193 196 202 209 214 217 220 221 223 227 230 234 236 237 239 240 242 243 243 243 243 243 244 247 249 251 254 257 259 260 260 260 258 258 258 257 258 259
248 243 243 246 246 239 234 235 235 235 236 229 219 215 212 209 206 203 201 203 205 207 207 205 203 202 200 199 199 199 201 203 207 213 217 217 215 214 213 215 215 211 206 202 199 196 193 192 194 197 202 211 217 221 224 226 226 227 230 234 236 237 240 241 242 242 242 242 242 242 245 248 251 253 256 258 260 261 262 261 260 260 259 258 258 259
251 245 243 246 248 243 238 238 236 232 230 223 215 208 200 198 201 201 199 199 201 203 202 199 196 196 195 196 198 199 201 204 205 207 208 207 208 209 208 209 210 207 202 199 197 196 197 199 203 207 211 215 220 224 228 232 233 232 232 234 236 238 242 244 246 246 246 246 247 248 250 252 255 258 260 260 261 261 262 262 263 262 262 261 260 261
258 248 246 246 242 236 237 239 232 219 211 213 214 204 191 188 195 199 199 199 199 198 196 194 192 192 194 197 200 202 204 206 206 207 208 207 208 209 207 206 206 204 203 203 204 207 211 215 219 223 226 230 233 235 237 240 242 241 240 239 240 243 246 249 251 252 253 253 254 255 256 256 257 259 261 261 262 262 264 265 265 264 264 264 263 263
254 241 240 242 233 225 227 229 221 204 196 200 209 203 187 180 185 190 190 191 193 192 193 193 193 195 197 198 201 203 205 207 206 205 207 208 209 209 209 208 208 208 208 210 213 217 222 227 232 236 238 240 243 246 247 248 248 248 246 245 245 246 249 252 253 254 256 257 257 258 259 259 259 259 260 261 261 261 263 264 265 264 264 265 265 264
236 224 228 223 211 214 221 212 198 189 187 191 197 196 184 177 179 182 181 183 185 186 188 191 194 197 198 198 200 201 203 206 206 204 206 209 209 210 211 212 213 214 215 218 221 224 228 232 237 241 244 246 248 250 252 253 253 253 251 250 250 250 252 254 255 256 258 259 260 261 261 261 261 261 261 261 261 261 262 263 263 264 264 264 265 265
217 221 226 206 198 212 219 201 186 180 183 187 187 184 180 176 175 178 181 183 184 184 185 187 190 193 195 196 197 196 198 205 207 206 208 211 212 212 213 214 215 218 221 224 227 231 234 237 240 242 245 248 251 253 254 255 255 256 256 256 256 257 257 258 258 258 260 261 262 262 263 263 263 263 263 263 263 263 264 264 265 265 264 264 264 265
208 202 197 189 200 210 200 187 178 171 174 180 176 171 173 172 169 173 179 181 180 181 182 184 187 190 192 194 195 193 194 198 201 202 206 210 212 212 213 214 215 218 222 225 229 234 239 242 243 244 246 249 252 254 255 256 257 258 259 260 260 260 260 261 261 261 261 262 262 263 263 264 264 265 265 265 265 265 265 265 266 267 267 266 266 265